Sandy Hook Coast Guard Station, New Jersey, United States
Lat: 40.47N, Lon: 74.02W
Wx Zone: K56N
Local Info
Past Weather Observations for Today

NOTE: This archive is for the closest National Weather Service station to Sandy Hook Coast Guard Station. Information may differ from the station used for current weather conditions.

Click here for Long-term Archive

Time Weather Temperature Dewpoint Humidity Pressure Winds Precip Visibility
22:51
Partly Cloudy
81°F / 27°C 73°F / 23°C 79% 29.95 in
(1014 mb)
SW 5.8 mph
(SW 9 kph)
- 10SM
21:51
Partly Cloudy
81°F / 27°C 73°F / 23°C 79% 29.95 in
(1014 mb)
SW 6.9 mph
(SW 11 kph)
- 10SM
20:51
Mostly Cloudy
82°F / 28°C 72°F / 22°C 70% 29.95 in
(1014 mb)
S 8.1 mph
(S 13 kph)
- 10SM
20:05
Mostly Cloudy
82°F / 28°C 72°F / 22°C 70% 29.95 in
(1014 mb)
S 9.2 mph
(S 15 kph)
- 10SM
19:55
Mostly Cloudy
Hazy
84°F / 29°C 72°F / 22°C 66% 29.95 in
(1014 mb)
S 8.1 mph
(S 13 kph)
- 1 3/4SM
19:51
Mostly Cloudy
84°F / 29°C 72°F / 22°C 66% 29.95 in
(1014 mb)
S 9.2 mph
(S 15 kph)
- 10SM
18:51
Mostly Cloudy
84°F / 29°C 72°F / 22°C 66% 29.92 in
(1013 mb)
S 10.4 mph
(S 17 kph)
- 10SM
17:51
Mostly Cloudy
88°F / 31°C 70°F / 21°C 55% 29.92 in
(1013 mb)
SSW 9.2 mph
(SSW 15 kph)
- 10SM
16:51
Mostly Cloudy
Partly Cloudy
88°F / 31°C 72°F / 22°C 59% 29.92 in
(1013 mb)
SSE 8.1 mph
(SSE 13 kph)
- 10SM
15:51
Mostly Cloudy
Cumulonimbus Clouds Observed
86°F / 30°C 72°F / 22°C 62% 29.92 in
(1013 mb)
SSE 11.5 mph
(SSE 19 kph)
- 10SM
14:51
Mostly Cloudy
88°F / 31°C 72°F / 22°C 59% 29.95 in
(1014 mb)
SE 10.4 mph
(SE 17 kph)
- 10SM
13:51
Mostly Cloudy
91°F / 33°C 66°F / 19°C 44% 29.95 in
(1014 mb)
SW 6.9 mph
(SW 11 kph)
- 10SM
12:51
Mostly Cloudy
90°F / 32°C 70°F / 21°C 52% 29.95 in
(1014 mb)
S 6.9 mph
(S 11 kph)
- 10SM
11:51
Mostly Cloudy
88°F / 31°C 70°F / 21°C 55% 29.98 in
(1015 mb)
SW 10.4 mph
(SW 17 kph)
- 10SM
10:51
Mostly Cloudy
84°F / 29°C 70°F / 21°C 62% 29.98 in
(1015 mb)
Variable 6.9 mph
(Variable 11 kph)
- 10SM
09:51
Mostly Cloudy
84°F / 29°C 72°F / 22°C 66% 30.01 in
(1016 mb)
S 3.5 mph
(S 6 kph)
- 10SM
08:51
Mostly Cloudy
82°F / 28°C 72°F / 22°C 70% 30.01 in
(1016 mb)
SW 3.5 mph
(SW 6 kph)
- 10SM
07:51
Mostly Cloudy
79°F / 26°C 72°F / 22°C 79% 30.01 in
(1016 mb)
Variable 3.5 mph
(Variable 6 kph)
- 10SM
06:51
Mostly Cloudy
75°F / 24°C 73°F / 23°C 94% 30.01 in
(1016 mb)
SW 4.6 mph
(SW 7 kph)
- 10SM
06:19
Mostly Cloudy
73°F / 23°C 72°F / 22°C 94% 30.01 in
(1016 mb)
SSW 5.8 mph
(SSW 9 kph)
- 10SM
05:51
Overcast
73°F / 23°C 72°F / 22°C 94% 30.01 in
(1016 mb)
SW 5.8 mph
(SW 9 kph)
- 10SM
04:51
Overcast
75°F / 24°C 72°F / 22°C 89% 30.01 in
(1016 mb)
SW 5.8 mph
(SW 9 kph)
- 10SM
03:51
Overcast
75°F / 24°C 72°F / 22°C 89% 30.01 in
(1016 mb)
SW 8.1 mph
(SW 13 kph)
- 10SM
02:51
Mostly Cloudy
75°F / 24°C 72°F / 22°C 89% 29.98 in
(1015 mb)
SSW 9.2 mph
(SSW 15 kph)
- 10SM
01:51
Mostly Cloudy
75°F / 24°C 72°F / 22°C 89% 30.01 in
(1016 mb)
SSW 9.2 mph
(SSW 15 kph)
- 10SM
00:51
Overcast
75°F / 24°C 72°F / 22°C 89% 30.01 in
(1016 mb)
SW 8.1 mph
(SW 13 kph)
- 10SM
Time Weather Temperature Dewpoint Humidity Pressure Winds Precip Visibility


Weather for websites

WeatherForYou.com, LLC is not responsible for any damages or problems caused by this service. Current weather conditions are obtained from the closest station including government and personal stations which may have varying degrees of accuracy. Weather forecasts are derived from the NOAA NDFD. Like all things, this site belongs to Jesus Christ... He just trusts me to maintain it. If you have any questions or comments email webmaster@weatherforyou.com

Copyright © 2014, WeatherForYou.com LLC. All rights reserved.